This is the latest recevied weather packets stored in our database for station/object KQ4UWH. If no packets are shown the sender has not sent any weather packets the latest 10 day(s).
| Time | Temp. | Humidity | Pressure | Rain* | Wind** | Luminosity | Snow |
|---|---|---|---|---|---|---|---|
| 1777329382 | 24.44° C | 54% | 1239.7 hPa | 0 mm | - | 129 W/m² | - |
| 1777329080 | 24.44° C | 54% | 1239.7 hPa | 0 mm | - | 154 W/m² | - |
| 1777328777 | 24.44° C | 53% | 1239.7 hPa | 0 mm | - | 153 W/m² | - |
| 1777328474 | 25° C | 53% | 1239.7 hPa | 0 mm | - | 179 W/m² | - |
| 1777328174 | 25° C | 52% | 1239.7 hPa | 0 mm | - | 199 W/m² | - |
| 1777327872 | 25° C | 51% | 1239.7 hPa | 0 mm | - | 216 W/m² | - |
| 1777327569 | 25° C | 51% | 1239.7 hPa | 0 mm | - | 236 W/m² | - |
| 1777327266 | 25.56° C | 51% | 1239.7 hPa | 0 mm | - | 251 W/m² | - |
| 1777326963 | 25° C | 52% | 1239.7 hPa | 0 mm | - | 267 W/m² | - |
| 1777326661 | 25.56° C | 50% | 1239.7 hPa | 0 mm | - | 285 W/m² | - |
| 1777326357 | 25.56° C | 50% | 1239.7 hPa | 0 mm | - | 303 W/m² | - |
| 1777326055 | 25° C | 51% | 1239.7 hPa | 0 mm | - | 319 W/m² | - |
| 1777325752 | 25.56° C | 51% | 1239.7 hPa | 0 mm | - | 335 W/m² | - |
| 1777325450 | 25.56° C | 50% | 1239.7 hPa | 0 mm | - | 351 W/m² | - |
| 1777325148 | 25° C | 53% | 1239.7 hPa | 0 mm | - | 362 W/m² | - |
| 1777324844 | 25.56° C | 53% | 1239.7 hPa | 0 mm | - | 375 W/m² | - |
| 1777324543 | 25.56° C | 52% | 1239.7 hPa | 0 mm | - | 391 W/m² | - |
| 1777324239 | 25.56° C | 51% | 1239.7 hPa | 0 mm | - | 408 W/m² | - |
| 1777323937 | 25.56° C | 53% | 1239.7 hPa | 0 mm | - | 419 W/m² | - |
| 1777323634 | 25.56° C | 52% | 1239.7 hPa | 0 mm | - | 442 W/m² | - |
| 1777323331 | 25° C | 52% | 1239.7 hPa | 0 mm | - | 449 W/m² | - |
| 1777323030 | 25° C | 54% | 1239.7 hPa | 0 mm | - | 462 W/m² | - |
| 1777322727 | 25° C | 53% | 1239.7 hPa | 0 mm | - | 475 W/m² | - |
| 1777322425 | 25° C | 52% | 1239.7 hPa | 0 mm | - | 488 W/m² | - |
| 1777322121 | 25.56° C | 52% | 1239.7 hPa | 0 mm | - | 499 W/m² | - |
* Rain latest hour (hover to see other rain measurements)
** Current wind speed in m/s (hover to see current wind gust speed)